KD8BMB Weather Reports


Display with metric or nautical units.
time (UTC)temp
F
wind
direction
speed
MPH
gust
MPH
rain 1hr
in
rain 24hr
in
rain mn
in
humidity
%
barometer
mb
20260831022533 71 320 0.0 0.0 0.00 1.01 1.01 93 1015.3
20260831022029 71 27 0.0 0.0 0.00 1.01 1.01 93 1015.3
20260831021527 71 22 0.0 0.0 0.00 1.01 1.01 93 1015.4
20260831021024 71 301 1.0 1.0 0.00 1.01 1.01 93 1015.4
20260831020519 71 30 0.0 0.0 0.00 1.01 1.01 92 1015.6
20260831020014 71 280 0.0 0.0 0.00 1.01 1.01 92 1015.3
20260831015509 71 144 0.0 1.0 0.00 1.01 1.01 92 1015.3
20260831015004 71 100 2.0 2.0 0.00 1.01 1.01 92 1015.5
20260831014458 71 71 0.0 0.0 0.00 1.01 1.01 92 1015.5
20260831013954 71 265 0.0 0.0 0.00 1.01 1.01 91 1015.2
20260831013450 71 313 0.0 0.0 0.00 1.01 1.01 91 1015.2
20260831012943 71 314 0.0 0.0 0.00 1.01 1.01 91 1015.1
20260831012439 71 287 1.0 1.0 0.00 1.01 1.01 91 1015.0
20260831011938 72 297 0.0 1.0 0.00 1.01 1.01 90 1015.0
20260831011433 72 266 2.0 3.0 0.00 1.01 1.01 90 1014.8
20260831010929 72 31 0.0 0.0 0.00 1.01 1.01 91 1014.9
20260831010424 71 208 0.0 0.0 0.00 1.01 1.01 91 1014.8
20260831005920 71 271 0.0 0.0 0.00 1.01 1.01 91 1015.0
20260831005415 71 187 0.0 0.0 0.00 1.01 1.01 91 1014.8
20260831004909 72 233 1.0 1.0 0.00 1.01 1.01 91 1014.8
20260831004406 72 190 1.0 1.0 0.00 1.01 1.01 90 1014.6
20260831003901 72 228 0.0 0.0 0.00 1.01 1.01 90 1014.7
20260831003357 72 15 0.0 1.0 0.00 1.01 1.01 89 1014.6
20260831002857 72 201 1.0 3.0 0.00 1.01 1.01 90 1014.6
20260831002356 73 297 0.0 0.0 0.00 1.01 1.01 89 1014.4
20260831001851 73 354 0.0 0.0 0.00 1.01 1.01 89 1014.6
20260831001351 73 45 0.0 0.0 0.00 1.01 1.01 89 1014.6
20260831000849 73 338 0.0 0.0 0.00 1.01 1.01 88 1014.8
20260831000344 73 276 0.0 0.0 0.00 1.01 1.01 88 1014.9
20260830235842 73 67 1.0 2.0 0.00 1.01 1.01 88 1014.7
20260830235337 73 20 0.0 1.0 0.00 1.01 1.01 87 1014.7
20260830234833 73 333 0.0 0.0 0.00 1.01 1.01 88 1014.6
20260830234328 73 287 0.0 1.0 0.00 1.01 1.01 88 1014.8
20260830233824 73 198 3.0 3.0 0.00 1.01 1.01 88 1014.6
20260830233319 73 251 2.0 3.0 0.00 1.01 1.01 87 1015.0
20260830232815 74 79 0.0 0.0 0.00 1.01 1.01 87 1014.8
20260830232310 74 280 0.0 0.0 0.00 1.01 1.01 87 1014.8
20260830231807 75 205 1.0 2.0 0.00 1.01 1.01 86 1014.5
20260830231307 75 37 0.0 1.0 0.00 1.01 1.01 85 1014.7
20260830230801 75 65 1.0 2.0 0.00 1.01 1.01 85 1014.7
20260830230257 75 248 0.0 0.0 0.00 1.01 1.01 85 1014.8
20260830225756 75 206 0.0 0.0 0.00 1.01 1.01 85 1014.7
20260830225251 75 47 1.0 1.0 0.00 1.01 1.01 84 1014.8
20260830224750 75 295 0.0 0.0 0.00 1.01 1.01 84 1014.9
20260830224246 75 184 2.0 2.0 0.00 1.01 1.01 83 1014.9
20260830223743 76 228 1.0 1.0 0.00 1.01 1.01 83 1015.1
20260830223238 76 222 0.0 0.0 0.00 1.01 1.01 82 1015.0
20260830222732 76 206 0.0 1.0 0.00 1.01 1.01 82 1015.2
20260830222227 77 12 0.0 0.0 0.00 1.01 1.01 82 1015.3
20260830221723 77 201 1.0 1.0 0.00 1.01 1.01 81 1015.4
20260830221220 76 27 0.0 0.0 0.00 1.01 1.01 82 1015.4
20260830220715 76 99 1.0 1.0 0.00 1.01 1.01 83 1015.1
20260830220214 76 145 2.0 2.0 0.00 1.01 1.01 82 1015.5
20260830215713 76 212 1.0 1.0 0.00 1.01 1.01 81 1015.5
20260830215207 75 288 1.0 1.0 0.00 1.01 1.01 83 1015.7
20260830214657 75 220 2.0 2.0 0.00 1.01 1.01 83 1015.7
20260830214157 76 311 0.0 0.0 0.00 1.01 1.01 83 1015.4
20260830213656 76 283 2.0 2.0 0.00 1.01 1.01 83 1015.6
20260830213152 76 49 1.0 3.0 0.00 1.01 1.01 83 1015.4
20260830212648 77 288 0.0 1.0 0.00 1.01 1.01 82 1015.6
20260830212142 76 219 1.0 1.0 0.00 1.01 1.01 81 1015.5
20260830211637 75 277 0.0 0.0 0.00 1.01 1.01 83 1015.3
20260830211136 75 68 2.0 2.0 0.00 1.01 1.01 84 1015.7
20260830210633 74 244 0.0 1.0 0.00 1.01 1.01 85 1015.7
20260830210132 75 88 1.0 2.0 0.00 1.01 1.01 86 1016.0
20260830205629 75 292 1.0 1.0 0.00 1.01 1.01 86 1015.8
20260830205124 75 189 0.0 1.0 0.00 1.01 1.01 85 1015.6
20260830204624 75 274 0.0 1.0 0.00 1.01 1.01 85 1015.6
20260830204123 75 295 0.0 0.0 0.00 1.01 1.01 86 1015.8
20260830203619 75 285 1.0 2.0 0.00 1.01 1.01 86 1015.6
20260830203119 75 281 0.0 0.0 0.00 1.01 1.01 86 1015.6
20260830202619 75 297 0.0 1.0 0.00 1.01 1.01 87 1015.5
20260830202114 75 358 0.0 0.0 0.00 1.01 1.01 87 1015.6
20260830201614 75 245 2.0 2.0 0.00 1.01 1.01 86 1015.5
20260830201109 75 42 0.0 0.0 0.00 1.01 1.01 88 1015.5
20260830200605 75 98 2.0 2.0 0.00 1.01 1.01 87 1015.5
20260830200103 75 208 1.0 2.0 0.00 1.01 1.01 88 1015.4
20260830195559 74 323 0.0 0.0 0.00 1.01 1.01 89 1015.5
20260830195056 74 51 0.0 0.0 0.00 1.01 1.01 89 1015.7
20260830194551 74 215 0.0 1.0 0.00 1.01 1.01 89 1015.5
20260830194045 74 202 0.0 0.0 0.00 1.01 1.01 88 1015.4
20260830193544 74 183 0.0 0.0 0.00 1.01 1.01 89 1015.4
20260830193040 74 270 0.0 0.0 0.00 1.01 1.01 90 1015.7
20260830192535 74 252 0.0 0.0 0.00 1.01 1.01 90 1015.8
20260830192029 73 6 0.0 0.0 0.00 1.01 1.01 90 1015.9
20260830191525 73 75 2.0 3.0 0.00 1.01 1.01 92 1015.8
20260830191020 73 228 1.0 2.0 0.00 1.01 1.01 91 1016.0
20260830190515 73 186 1.0 2.0 0.00 1.01 1.01 91 1015.9
20260830190010 73 212 0.0 0.0 0.00 1.01 1.01 91 1016.0
20260830185504 73 299 0.0 0.0 0.00 1.01 1.01 92 1016.1
20260830185000 73 266 0.0 0.0 0.00 1.01 1.01 92 1015.9
20260830184459 73 304 0.0 0.0 0.00 1.01 1.01 92 1016.3
20260830183953 73 274 0.0 1.0 0.00 1.01 1.01 92 1016.3
20260830183448 73 286 0.0 0.0 0.00 1.01 1.01 92 1016.2
20260830182943 73 209 0.0 0.0 0.00 1.01 1.01 92 1016.2
20260830182438 73 277 0.0 0.0 0.00 1.01 1.01 92 1016.0
20260830181935 72 195 0.0 2.0 0.00 1.01 1.01 93 1016.0
20260830181431 72 201 2.0 2.0 0.00 1.01 1.01 93 1016.1
20260830180925 71 351 0.0 0.0 0.00 1.01 1.01 97 1016.1
20260830180425 70 320 0.0 0.0 0.00 1.01 1.01 99 1016.1
20260830175924 70 356 1.0 1.0 0.00 1.01 1.01 99 1016.1
20260830175423 69 68 0.0 0.0 0.00 1.01 1.01 99 1016.0
20260830174919 69 283 0.0 0.0 0.00 1.01 1.01 99 1016.3
20260830174414 68 264 0.0 0.0 0.00 1.01 1.01 99 1016.3
20260830173910 68 346 0.0 0.0 0.00 1.01 1.01 99 1016.3
20260830173405 68 262 1.0 1.0 0.00 1.01 1.01 99 1016.4
20260830172901 68 269 0.0 0.0 0.00 1.01 1.01 99 1016.3
20260830172357 67 274 0.0 1.0 0.00 1.01 1.01 99 1016.1
20260830171852 67 266 1.0 1.0 0.00 1.01 1.01 99 1016.4
20260830171348 67 307 0.0 0.0 0.00 1.01 1.01 99 1016.4
20260830170843 67 34 0.0 0.0 0.00 1.01 1.01 99 1016.6
20260830170342 67 44 0.0 0.0 0.00 1.01 1.01 99 1016.3
20260830165840 67 330 0.0 0.0 0.00 1.01 1.01 99 1016.5
20260830165337 66 296 0.0 0.0 0.00 1.01 1.01 99 1016.3
20260830164833 66 303 0.0 0.0 0.00 1.01 1.01 99 1016.5
20260830164328 67 276 1.0 1.0 0.00 1.01 1.01 99 1016.6
20260830163825 67 321 0.0 0.0 0.00 1.01 1.01 99 1016.4
20260830163320 66 245 4.0 6.0 0.00 1.01 1.01 99 1016.4
20260830162815 66 211 0.0 0.0 0.00 1.01 1.01 99 1016.6
20260830162311 66 249 0.0 0.0 0.00 1.01 1.01 99 1016.7
20260830161806 66 272 0.0 0.0 0.00 1.01 1.01 99 1016.9
20260830161305 66 172 3.0 3.0 0.00 1.01 1.01 99 1017.0
20260830160801 66 256 0.0 0.0 0.00 1.01 1.01 99 1016.9
20260830160300 65 227 0.0 0.0 0.00 1.01 1.01 99 1017.1
20260830155751 65 239 0.0 0.0 0.00 1.01 1.01 99 1017.4
20260830155248 65 301 2.0 2.0 0.07 1.01 1.01 99 1017.7
20260830154748 65 294 0.0 0.0 0.19 1.01 1.01 99 1017.6
20260830154243 65 196 0.0 0.0 0.12 1.00 1.00 99 1017.5
20260830153740 65 307 0.0 1.0 0.17 0.98 0.98 99 1017.7
20260830153235 65 84 1.0 1.0 0.24 0.98 0.98 99 1017.5
20260830152733 65 234 0.0 0.0 0.19 0.95 0.95 99 1017.9
20260830152228 65 299 0.0 0.0 0.19 0.94 0.94 99 1018.1
20260830151723 65 310 0.0 0.0 0.12 0.92 0.92 99 1017.8
20260830151222 65 91 1.0 2.0 0.05 0.91 0.91 99 1017.7
20260830150717 65 290 1.0 2.0 0.00 0.90 0.90 99 1017.6
20260830150211 65 317 1.0 2.0 0.07 0.90 0.90 99 1018.0
20260830145706 65 294 1.0 1.0 0.12 0.90 0.90 99 1017.9
20260830145201 65 27 0.0 0.0 0.12 0.89 0.89 99 1018.1
20260830144656 65 258 0.0 0.0 0.19 0.88 0.88 99 1018.1
20260830144152 65 298 0.0 0.0 0.17 0.87 0.87 99 1018.3
20260830143648 65 50 0.0 0.0 0.12 0.86 0.86 99 1018.2
20260830143146 65 47 0.0 0.0 0.12 0.84 0.84 99 1018.1
20260830142641 65 119 0.0 0.0 0.38 0.84 0.84 99 1018.6
20260830142136 65 327 0.0 0.0 0.38 0.82 0.82 99 1018.7
20260830141631 65 205 0.0 0.0 0.17 0.78 0.78 99 1018.5
20260830141126 65 282 0.0 0.0 0.17 0.76 0.76 99 1018.6
20260830140622 65 306 0.0 0.0 0.24 0.75 0.75 99 1018.2
20260830140121 65 316 0.0 0.0 0.19 0.73 0.73 99 1018.2
20260830135616 65 280 0.0 0.0 0.12 0.72 0.72 99 1018.4
20260830135111 65 104 0.0 0.0 0.12 0.70 0.70 99 1018.4
20260830134607 65 308 1.0 2.0 0.26 0.69 0.69 99 1018.5
20260830134102 65 211 0.0 0.0 0.31 0.68 0.68 99 1018.3
20260830133557 65 251 0.0 0.0 0.24 0.65 0.65 99 1018.7
20260830133052 65 294 0.0 1.0 0.28 0.63 0.63 99 1018.6
20260830132549 65 339 0.0 0.0 0.24 0.61 0.61 99 1018.1
20260830132043 65 207 0.0 0.0 0.17 0.59 0.59 99 1018.5
20260830131542 65 305 2.0 2.0 0.19 0.57 0.57 99 1018.5
20260830131037 65 282 0.0 0.0 0.26 0.56 0.56 99 1018.3
20260830130532 65 69 0.0 0.0 0.17 0.54 0.54 99 1018.1
20260830130028 65 281 0.0 0.0 0.19 0.53 0.53 99 1018.3
20260830125522 65 336 0.0 0.0 0.12 0.51 0.51 99 1018.6
20260830125021 65 293 0.0 0.0 0.05 0.50 0.50 99 1019.1
20260830124520 65 254 2.0 2.0 0.07 0.49 0.49 99 1018.7
20260830124016 65 49 0.0 0.0 0.12 0.49 0.49 99 1018.7
20260830123513 66 282 0.0 0.0 0.12 0.48 0.48 99 1018.6
20260830123008 65 304 0.0 0.0 0.19 0.47 0.47 99 1018.5
20260830122505 65 272 0.0 0.0 0.24 0.46 0.46 99 1018.6
20260830122000 66 288 0.0 1.0 0.19 0.44 0.44 99 1018.7
20260830121455 65 301 0.0 0.0 0.19 0.42 0.42 99 1018.2
20260830120949 65 187 0.0 1.0 0.24 0.41 0.41 99 1018.2
20260830120445 65 194 1.0 1.0 0.31 0.40 0.40 99 1018.2
20260830115941 65 73 0.0 0.0 0.28 0.37 0.37 99 1018.5
20260830115437 65 252 1.0 2.0 0.24 0.35 0.35 99 1018.6
20260830114933 65 284 0.0 0.0 0.26 0.32 0.32 99 1018.5
20260830114429 65 310 0.0 0.0 0.19 0.30 0.30 99 1018.4
20260830113929 65 325 0.0 1.0 0.12 0.28 0.28 99 1018.2
20260830113424 65 272 0.0 0.0 0.24 0.27 0.27 99 1018.4
20260830112919 65 59 0.0 0.0 0.28 0.26 0.26 99 1018.0
20260830112416 65 316 0.0 0.0 0.24 0.23 0.23 99 1018.0
20260830111911 65 50 0.0 0.0 0.31 0.21 0.21 99 1017.8
20260830111407 65 314 0.0 0.0 0.26 0.19 0.19 99 1017.7
20260830110902 65 345 1.0 1.0 0.07 0.16 0.16 99 1017.0
20260830110358 65 241 1.0 1.0 0.00 0.15 0.15 99 1016.9
20260830105856 64 276 0.0 0.0 0.00 0.15 0.15 99 1017.6
20260830105353 64 266 0.0 0.0 0.00 0.15 0.15 99 1017.2
20260830104849 64 283 0.0 0.0 0.00 0.15 0.15 99 1017.1
20260830104346 64 11 0.0 0.0 0.00 0.15 0.15 99 1017.1
20260830103844 64 288 0.0 0.0 0.00 0.15 0.15 99 1017.0
20260830103341 64 270 0.0 0.0 0.00 0.15 0.15 99 1017.2
20260830102838 64 310 0.0 0.0 0.00 0.15 0.15 99 1017.1
20260830102334 65 324 0.0 0.0 0.00 0.15 0.15 99 1017.0
20260830101831 64 344 0.0 0.0 0.00 0.15 0.15 99 1017.0
20260830101325 64 76 0.0 0.0 0.00 0.15 0.15 99 1017.2
20260830100825 64 10 0.0 0.0 0.00 0.15 0.15 99 1017.0
20260830100319 64 352 0.0 0.0 0.00 0.15 0.15 99 1017.4
20260830095818 64 355 0.0 0.0 0.00 0.15 0.15 99 1017.2
20260830095315 64 266 0.0 0.0 0.00 0.15 0.15 99 1017.2
20260830094810 65 359 0.0 0.0 0.00 0.15 0.15 99 1017.5
20260830094306 65 282 0.0 0.0 0.00 0.15 0.15 99 1017.4
20260830093802 65 85 0.0 1.0 0.00 0.15 0.15 99 1017.6
20260830093257 65 64 0.0 0.0 0.00 0.15 0.15 99 1017.7
20260830092756 65 303 0.0 0.0 0.00 0.15 0.15 99 1017.9
20260830092253 65 55 0.0 0.0 0.00 0.15 0.15 99 1017.8
20260830091750 65 321 0.0 0.0 0.00 0.15 0.15 99 1017.8
20260830091249 65 285 0.0 0.0 0.00 0.15 0.15 99 1017.8
20260830090748 65 296 0.0 0.0 0.05 0.15 0.15 99 1018.1
20260830090244 65 310 0.0 0.0 0.24 0.15 0.15 99 1017.9
20260830085743 65 318 0.0 0.0 0.19 0.14 0.14 99 1017.9
20260830085239 65 61 0.0 0.0 0.05 0.11 0.11 99 1018.0
20260830084734 65 313 0.0 0.0 0.12 0.11 0.11 99 1018.3
20260830084229 65 299 0.0 0.0 0.07 0.10 0.10 99 1018.3
20260830083724 65 302 0.0 0.0 0.00 0.09 0.09 99 1018.0
20260830083220 65 303 0.0 0.0 0.00 0.09 0.09 99 1017.8
20260830082719 65 325 0.0 0.0 0.00 0.09 0.09 99 1017.2
20260830082215 65 270 0.0 0.0 0.00 0.09 0.09 99 1017.6
20260830081711 65 327 0.0 0.0 0.05 0.09 0.09 99 1017.4
20260830081210 65 71 0.0 1.0 0.05 0.09 0.09 99 1017.5
20260830080704 65 296 0.0 0.0 0.00 0.08 0.08 99 1017.9
20260830080201 65 89 0.0 0.0 0.07 0.08 0.08 99 1017.8
20260830075659 65 293 0.0 0.0 0.12 0.08 0.08 99 1018.5
20260830075155 65 354 0.0 0.0 0.05 0.07 0.07 99 1018.6
20260830074651 65 297 0.0 0.0 0.05 0.07 0.07 99 1018.8
20260830074146 65 284 0.0 0.0 0.00 0.06 0.06 99 1018.7
20260830073642 65 279 0.0 0.0 0.07 0.06 0.06 99 1019.0
20260830073138 65 279 0.0 0.0 0.07 0.06 0.06 99 1018.7
20260830072632 65 273 0.0 0.0 0.00 0.05 0.05 99 1018.7
20260830072132 65 282 0.0 0.0 0.00 0.05 0.05 99 1018.5
20260830071628 65 293 0.0 0.0 0.00 0.05 0.05 99 1018.5
20260830071126 65 295 0.0 0.0 0.00 0.05 0.05 99 1018.5
20260830070621 65 314 0.0 0.0 0.00 0.05 0.05 99 1018.4
20260830070117 65 280 0.0 0.0 0.00 0.05 0.05 99 1018.6
20260830065615 65 240 0.0 0.0 0.00 0.05 0.05 99 1018.5
20260830065114 65 324 0.0 0.0 0.00 0.05 0.05 99 1018.6
20260830064614 65 284 0.0 0.0 0.00 0.05 0.05 99 1018.6
20260830064109 65 290 0.0 0.0 0.00 0.05 0.05 99 1018.6
20260830063609 65 305 0.0 0.0 0.00 0.05 0.05 99 1018.7
20260830063109 65 332 0.0 0.0 0.00 0.05 0.05 99 1018.6
20260830062603 65 278 0.0 0.0 0.00 0.05 0.05 99 1018.8
20260830062057 64 278 0.0 0.0 0.00 0.05 0.05 99 1018.7
20260830061552 64 277 0.0 0.0 0.00 0.05 0.05 99 1018.7
20260830061049 65 278 0.0 0.0 0.00 0.05 0.05 99 1018.9
20260830060544 65 274 0.0 0.0 0.00 0.05 0.05 99 1018.5
20260830060041 65 291 0.0 0.0 0.00 0.05 0.05 99 1018.6
20260830055536 65 338 0.0 0.0 0.00 0.05 0.05 99 1018.6
20260830055032 65 333 0.0 0.0 0.00 0.05 0.05 99 1018.6
20260830054527 65 320 0.0 0.0 0.00 0.05 0.05 99 1018.6
20260830054022 65 295 0.0 0.0 0.00 0.05 0.05 99 1018.9
20260830053518 65 257 0.0 0.0 0.00 0.05 0.05 99 1018.8
20260830053017 65 270 0.0 0.0 0.00 0.05 0.05 99 1018.7
20260830052513 66 16 0.0 0.0 0.00 0.05 0.05 99 1018.7
20260830052012 66 59 0.0 0.0 0.00 0.05 0.05 99 1019.1
20260830051508 66 274 0.0 0.0 0.00 0.05 0.05 99 1018.9
20260830051003 66 87 0.0 0.0 0.00 0.05 0.05 98 1019.0
20260830050457 66 328 0.0 0.0 0.07 0.05 0.05 98 1019.1
20260830045955 66 69 0.0 0.0 0.07 0.05 0.05 97 1019.1
20260830045451 66 320 2.0 3.0 0.00 0.04 0.04 97 1019.2
20260830044950 66 287 0.0 1.0 0.00 0.04 0.04 99 1019.1
20260830044446 67 294 2.0 2.0 0.05 0.04 0.04 99 1019.0
20260830043940 68 291 0.0 0.0 0.05 0.04 0.04 99 1019.0
20260830043435 68 243 0.0 0.0 0.07 0.03 0.03 99 1019.0
20260830042933 68 312 0.0 0.0 0.12 0.03 0.03 99 1019.0
20260830042427 68 301 0.0 0.0 0.05 0.02 0.02 98 1019.1
20260830041926 68 315 0.0 0.0 0.07 0.01 0.01 98 1019.0
20260830041425 68 277 0.0 0.0 0.07 0.01 0.01 98 1019.0
20260830040921 68 332 0.0 0.0 0.00 0.00 0.00 97 1018.8
20260830040417 68 319 0.0 0.0 0.00 0.00 0.00 97 1018.8
20260830035916 68 60 0.0 0.0 0.00 0.00 0.00 96 1018.5
20260830035415 69 310 0.0 0.0 0.00 0.00 0.00 95 1018.6
20260830034910 69 77 0.0 0.0 0.00 0.00 0.00 95 1018.7
20260830034406 69 317 0.0 0.0 0.00 0.00 0.00 94 1019.0
20260830033901 69 269 0.0 0.0 0.00 0.00 0.00 93 1018.9
20260830033355 69 280 0.0 0.0 0.00 0.00 0.00 92 1018.7
20260830032850 69 282 0.0 0.0 0.00 0.00 0.00 92 1018.6
20260830032344 69 286 0.0 0.0 0.00 0.00 0.00 92 1018.6
20260830031840 69 286 0.0 0.0 0.00 0.00 0.00 92 1018.7
20260830031335 69 280 0.0 0.0 0.00 0.00 0.00 92 1018.4
20260830030830 69 280 0.0 0.0 0.00 0.00 0.00 91 1018.4
20260830030326 70 280 0.0 0.0 0.00 0.00 0.00 91 1018.8
20260830025825 70 280 0.0 0.0 0.00 0.00 0.00 91 1018.4
20260830025324 70 280 0.0 0.0 0.00 0.00 0.00 91 1018.4
20260830024819 70 281 0.0 0.0 0.00 0.00 0.00 90 1018.4
20260830024314 70 281 0.0 0.0 0.00 0.00 0.00 88 1018.5
20260830023812 70 281 0.0 0.0 0.00 0.00 0.00 88 1018.3
20260830023311 71 281 0.0 0.0 0.00 0.00 0.00 88 1018.4
20260830022810 71 281 0.0 0.0 0.00 0.00 0.00 87 1018.3